Voltar ao catálogo

STARLINK-30114

AtivoComunicaçõesVLEO
NORAD 56826·PAYLOAD·🇺🇸 United States

Lançado Jun 4, 2023 de Cape Canaveral Space Force Station

Loading…

Próximas Passagens (próximas 24 horas)

TLE

AtualizadoSource: CelesTrak SupGP

Época: Sep 15, 2026, 01:50 UTC

1 56826C 23079D   26258.07687500  .00056263  00000+0  20381-2 0  2589
2 56826  42.9999 117.4360 0001428 274.9578 351.7683 15.27546746    11

Acompanhe STARLINK-30114 em tempo real com AllMySat

Download on the App Store